Temperature
21 22 21 21 21 21 21 21 21 21 20 20 20 20 19 19 18 18 17 16 16 15 15 14 14 14 13 13 13 13 13 13 13 13 13 13 13 13 13 12 12 12 12 12
20 21 21 21 21 21 21 21 20 20 19 20 19 19 18 18 17 17 16 16 15 15 14 14 14 13 13 13 13 13 13 13 13 12 12 12 12 12 12 12 12 12 12 12
19 21 21 20 20 20 20 20 20 19 19 19 18 18 18 17 16 16 15 15 14 14 14 13 13 13 13 13 12 12 12 12 12 12 12 12 12 11 12 11 11 11 11 11
19 19 18 19 20 20 19 19 19 19 18 18 18 17 17 16 16 15 14 14 14 14 13 13 13 13 12 12 12 12 12 11 11 11 11 11 11 11 11 11 11 11 11 11
19 18 18 18 18 18 18 18 18 17 17 17 17 17 16 16 15 14 14 14 13 13 13 13 13 12 12 12 12 12 11 11 11 11 11 11 11 11 11 11 11 11 11 11
18 17 17 17 18 18 18 16 17 17 17 16 16 15 15 15 14 14 13 13 13 13 13 12 12 12 12 11 11 11 11 11 11 11 10 10 10 10 10 10 10 10 10 10
17 17 17 16 17 17 16 15 16 16 16 16 15 14 14 14 13 13 13 12 12 12 12 12 12 12 11 11 11 11 11 11 11 10 10 10 10 10 10 10 10 10 10 10
16 16 15 16 16 15 15 15 15 15 15 15 14 14 14 13 13 12 12 12 12 11 11 11 11 11 11 11 10 10 10 10 10 10 10 10 10 9 9 9 9 10 10 9
16 15 15 15 15 15 15 15 14 14 14 14 13 13 13 12 12 12 11 11 11 11 11 10 10 10 10 10 10 10 10 10 10 9 9 9 9 9 9 9 9 9 9 9
15 15 15 15 14 14 14 14 14 14 13 13 13 12 12 12 11 11 11 10 10 10 10 10 10 10 10 9 9 9 9 9 9 9 9 9 9 9 9 9 8 8 8 9
15 14 14 14 13 13 13 13 13 13 12 12 12 12 11 11 11 10 10 10 10 10 10 9 9 9 9 9 9 9 8 8 8 8 8 8 8 8 8 8 8 8 8 8
14 14 14 13 13 12 12 12 12 12 12 11 11 11 11 10 10 10 10 9 9 9 9 9 9 9 9 9 8 8 8 8 8 8 7 8 7 7 8 8 8 8 8 8
13 13 13 12 12 12 12 11 11 11 11 11 10 10 10 10 10 9 9 9 9 9 8 8 8 8 8 8 8 8 8 7 7 7 7 7 7 7 7 7 7 7 7 7
12 12 12 12 11 11 11 11 10 10 10 10 10 9 9 9 9 9 8 8 8 8 8 8 8 8 8 8 7 7 7 7 7 7 7 7 7 7 7 7 7 7 7 7
12 11 11 11 11 10 10 10 10 10 9 9 9 9 9 9 8 8 8 8 8 7 7 7 7 7 7 7 7 7 6 6 6 6 6 6 6 6 6 6 6 6 6 7
11 11 10 10 10 10 10 10 9 9 9 8 8 8 8 8 8 7 7 7 7 7 7 7 7 7 7 6 6 6 6 6 6 6 6 6 6 6 6 6 6 6 6 6
10 10 10 10 10 10 9 9 9 9 8 8 8 8 7 7 7 7 7 6 6 6 6 6 6 6 6 6 5 5 5 5 5 5 5 5 5 6 6 5 5 5 5 6
10 10 10 9 9 9 9 9 8 8 8 8 7 7 7 7 6 6 6 6 6 6 5 5 5 5 5 5 5 5 5 4 4 5 5 5 5 5 5 5 5 5 5 5
9 9 9 9 9 8 8 8 8 8 7 7 7 6 6 6 6 6 5 5 5 5 5 5 5 4 4 4 4 4 4 4 4 4 4 4 4 4 4 4 4 4 4 4
9 9 9 8 8 8 8 8 8 7 7 7 6 6 6 6 5 5 5 5 5 5 4 4 4 4 4 3 3 4 4 4 4 4 4 4 4 4 4 4 4 4 4 4
8 8 8 8 8 8 8 7 7 7 7 6 6 6 5 5 5 5 4 4 4 4 4 4 3 3 3 3 3 3 3 3 3 3 3 3 3 3 3 3 3 3 3 3
8 8 8 7 7 7 7 7 7 6 6 6 6 5 5 5 4 4 4 4 4 4 4 3 3 3 3 3 3 3 3 3 3 3 3 2 2 3 3 3 3 3 3 3
8 7 7 7 7 7 6 6 6 6 6 5 5 5 5 4 4 4 4 4 4 4 3 3 3 3 3 2 2 2 2 2 2 2 2 2 2 2 2 2 2 2 2 2
7 7 7 7 6 6 6 6 5 5 5 5 5 4 4 4 4 4 4 4 3 3 3 3 3 2 2 2 2 2 2 2 2 2 2 2 2 2 1 1 1 2 2 1
7 7 6 6 6 6 5 5 5 5 5 4 4 4 4 4 3 3 3 3 3 3 3 3 2 2 2 2 1 1 1 1 1 1 1 1 1 1 1 1 1 1 1 1
6 6 6 6 5 5 5 5 4 4 4 4 4 3 3 3 3 3 3 3 3 3 2 2 2 2 2 1 1 1 1 1 1 1 1 1 0 0 0 0 0 0 0 0
6 5 5 5 5 5 4 4 4 4 4 3 3 3 3 3 3 3 3 2 2 2 2 2 1 1 1 1 1 1 0 0 0 -0 -0 -0 -0 -0 -0 -0 -0 -0 -0 -0
Wind_Speed
8 7 7 8 9 9 10 9 7 6 3 1 2 3 4 4 4 4 3 3 3 3 2 2 2 2 2 2 1 1 2 2 1 1 1 1 1 1 1 1 1 1 1 1
9 8 8 9 9 10 10 8 6 5 2 2 4 5 4 4 4 4 3 2 2 2 2 2 2 2 1 1 2 1 1 1 1 1 1 1 1 1 1 1 0 0 0 1
8 6 7 8 6 7 5 3 4 4 2 2 3 3 3 3 3 3 2 2 1 1 1 1 2 2 2 2 1 2 1 1 1 1 1 1 1 1 1 1 0 0 1 1
6 6 7 1 4 3 1 1 3 2 3 3 3 3 3 3 3 3 3 2 1 1 1 2 1 1 2 1 1 1 1 1 1 2 1 1 2 1 1 1 1 1 1 1
5 6 4 1 1 2 2 1 2 2 3 3 3 2 2 4 4 3 2 2 1 1 0 1 2 1 2 2 1 1 1 1 2 2 2 2 2 2 2 1 1 1 1 1
5 6 4 1 2 2 2 1 3 3 2 2 2 1 1 3 3 3 3 2 2 2 2 2 2 1 1 2 1 1 1 2 2 2 3 3 3 2 2 2 2 2 2 2
6 6 2 1 2 0 1 1 3 4 3 3 2 2 2 3 3 3 3 3 3 3 3 2 2 2 1 1 0 1 1 1 1 2 3 3 3 2 2 2 2 1 2 2
4 5 2 3 2 1 2 3 3 4 4 4 4 4 3 3 3 3 3 3 3 3 3 3 2 2 1 1 1 1 1 0 1 1 2 2 2 3 2 2 2 2 2 2
1 1 3 3 3 3 3 3 3 3 3 3 3 2 3 2 2 2 3 3 3 2 2 2 2 2 1 1 2 2 1 1 1 1 1 1 2 2 2 3 3 3 2 2
1 1 1 2 4 3 3 3 4 3 3 3 2 2 2 2 2 2 3 2 2 2 2 1 1 2 1 2 2 1 1 1 1 1 1 1 1 2 2 2 2 2 3 2
4 1 1 2 3 3 3 3 4 4 3 3 2 2 2 2 2 2 2 1 1 1 1 1 1 2 2 2 2 2 2 1 1 1 1 2 2 2 3 3 3 3 2 2
3 2 2 1 1 2 2 2 3 3 3 3 3 2 2 2 2 2 2 2 1 1 1 1 2 2 2 1 1 2 2 1 1 1 1 1 1 2 2 3 3 4 4 3
2 4 3 3 2 2 2 2 2 2 2 2 2 2 2 2 2 2 2 2 2 1 1 1 1 1 2 2 1 2 2 2 1 1 2 2 2 2 2 3 3 4 5 4
2 2 2 2 2 1 1 1 2 2 3 2 2 2 2 2 2 2 2 1 2 2 1 1 2 2 3 3 2 2 2 2 2 2 2 2 2 3 3 3 3 3 4 6
1 2 2 1 1 2 1 1 1 1 1 2 2 2 2 2 2 2 2 2 2 2 2 2 2 3 3 3 3 3 2 2 2 2 2 2 2 2 3 3 2 2 1 2
2 1 1 2 2 2 2 1 1 1 1 1 1 1 1 1 1 2 2 2 2 2 3 3 3 3 3 3 3 2 2 3 3 2 2 2 3 2 2 2 3 2 3 2
3 4 3 3 3 3 2 2 1 1 0 1 1 1 1 1 1 2 2 2 2 2 3 3 3 4 4 4 4 3 2 3 4 3 2 3 3 2 2 2 3 2 3 2
3 3 2 2 2 2 2 2 1 1 0 0 1 1 0 0 1 1 2 2 2 2 3 3 4 4 3 4 4 3 3 2 2 2 2 2 3 3 2 2 3 3 2 2
3 3 2 2 2 2 2 2 2 1 1 1 1 1 1 1 0 1 1 1 1 2 3 4 7 5 3 4 6 3 3 3 3 3 2 3 4 3 3 3 3 3 3 2
2 2 2 2 2 2 2 2 1 1 1 1 1 1 1 1 1 0 1 1 1 1 1 3 3 3 3 4 6 4 4 3 3 3 3 3 3 3 3 3 3 3 3 3
2 2 2 2 2 2 2 1 1 1 1 1 1 2 1 1 1 1 1 1 1 2 2 3 2 3 3 4 5 4 4 3 3 3 3 3 3 3 3 4 4 3 3 2
2 2 2 2 2 2 1 1 1 1 1 1 1 1 1 1 1 1 1 1 0 1 1 1 1 4 5 6 4 4 3 3 3 3 3 3 3 3 3 3 3 3 3 2
2 2 2 2 2 2 1 1 1 1 1 2 2 2 2 1 1 1 1 1 0 1 2 1 3 5 6 4 3 4 4 3 3 3 3 3 3 3 3 3 3 4 3 3
2 2 2 2 2 2 2 1 1 1 1 1 1 2 1 1 1 1 0 0 1 2 2 2 4 5 5 3 3 3 3 3 3 3 3 3 3 3 3 3 3 3 3 4
2 2 2 2 2 2 2 1 1 1 1 1 1 1 1 1 1 1 0 1 1 2 2 3 4 5 4 3 3 3 3 4 4 3 3 3 3 3 3 3 3 3 3 3
2 2 2 2 1 1 1 1 1 1 1 1 1 1 0 0 0 0 1 1 1 2 2 2 2 3 3 3 3 4 3 4 4 4 4 4 4 3 3 3 4 3 3 3
2 1 1 1 0 0 1 1 1 1 1 1 1 1 1 1 1 1 1 1 1 1 2 2 2 2 3 3 3 3 3 3 3 3 3 3 3 3 3 4 3 3 3 3
Wind_Direction
269 272 268 256 246 247 255 260 266 280 298 299 71 97 94 97 102 105 109 110 116 124 135 153 158 162 160 152 143 181 185 178 186 185 163 167 168 145 141 145 159 164 189 172
269 259 258 262 256 246 247 258 268 276 286 29 62 64 68 88 91 86 87 94 110 125 133 161 166 169 160 161 160 173 181 168 135 147 138 145 159 143 128 116 93 91 194 162
268 257 260 258 267 240 231 260 269 279 303 65 68 57 54 75 101 99 78 57 72 128 141 162 175 181 185 181 177 169 159 154 153 170 180 164 148 119 126 159 151 305 269 222
262 263 253 261 19 38 123 354 357 351 32 32 61 58 48 65 87 87 71 57 52 70 160 174 164 170 153 146 146 142 124 157 176 184 182 166 160 170 195 184 178 195 219 221
262 257 257 217 8 339 311 305 10 14 28 26 39 76 68 63 59 74 68 56 51 29 73 146 137 148 158 144 139 142 159 196 197 184 181 181 186 199 202 196 205 214 190 206
263 259 260 40 20 346 288 236 31 37 40 23 9 312 36 47 47 66 68 61 51 39 30 63 88 108 147 154 150 183 208 217 212 200 190 193 198 202 207 210 208 214 203 201
257 261 275 24 7 342 234 69 35 27 29 21 16 29 30 44 50 66 70 66 61 57 43 50 64 82 86 83 39 248 251 234 228 216 199 194 192 196 209 211 211 226 222 212
247 249 245 59 73 60 55 55 38 35 28 19 41 51 42 44 50 64 67 67 66 62 48 45 56 70 63 35 357 12 5 316 269 241 224 207 186 196 204 199 216 227 232 226
291 96 93 82 82 53 44 31 23 26 30 26 42 43 39 37 41 55 67 66 60 62 58 51 56 67 56 20 13 1 344 333 311 284 256 220 205 207 210 206 211 221 220 225
284 103 128 67 50 39 28 17 7 14 27 23 23 32 27 35 40 53 62 60 59 59 53 32 39 40 40 26 13 350 335 340 325 329 330 284 236 211 212 213 217 228 225 231
272 287 352 22 16 10 19 10 3 6 16 17 10 17 22 19 44 48 44 43 44 49 22 352 17 31 30 28 0 330 311 319 337 344 303 291 255 229 218 213 198 215 236 233
279 300 287 305 350 347 359 359 349 356 6 12 8 6 20 26 39 48 32 24 32 41 31 3 4 12 24 17 341 320 317 334 327 315 287 262 260 279 270 239 229 230 235 233
328 357 359 347 339 333 334 340 343 348 349 3 14 19 25 26 35 40 31 20 11 24 14 349 347 356 358 341 320 310 314 323 322 307 297 276 264 252 264 265 249 246 238 233
32 348 309 314 319 317 330 343 344 347 355 13 21 23 22 23 34 40 32 14 357 2 10 8 6 355 344 338 321 307 310 313 307 281 274 265 266 269 263 251 243 249 240 232
282 297 301 313 306 299 314 337 316 321 357 18 16 6 5 14 10 6 11 9 9 5 6 2 358 350 345 340 331 314 309 301 289 286 283 271 266 268 276 277 264 257 256 247
300 309 282 266 259 263 258 262 277 275 331 357 349 345 355 0 357 12 20 22 15 6 359 357 357 350 348 346 339 329 326 320 318 304 295 284 276 268 269 273 267 260 250 242
241 246 239 256 262 258 253 247 253 241 272 330 327 345 11 20 22 20 13 11 16 13 13 14 1 354 358 355 344 331 321 307 302 297 287 284 283 276 274 276 274 261 255 248
246 251 261 273 282 285 283 271 257 229 167 22 340 334 331 328 347 9 10 8 9 10 14 15 6 353 358 356 343 334 321 305 294 292 297 305 303 293 285 284 282 277 271 266
253 256 258 269 276 269 268 267 269 239 174 174 199 241 270 277 323 6 358 351 357 359 8 17 355 345 351 356 344 327 317 311 307 305 304 306 300 293 289 281 279 276 270 264
247 261 272 282 282 277 266 249 246 222 182 191 214 244 264 305 3 341 314 309 326 4 26 8 340 333 344 350 341 323 317 313 309 307 310 302 297 295 291 284 281 279 271 261
237 242 252 266 276 275 269 246 220 196 188 196 213 229 242 264 284 285 294 307 347 51 39 345 329 334 346 343 329 317 312 309 303 299 300 301 302 305 304 300 294 288 280 275
225 230 248 256 252 256 263 250 211 201 193 206 230 242 233 229 248 272 278 278 348 30 347 293 325 344 342 334 319 315 314 314 312 311 310 309 306 303 304 305 299 295 288 282
223 235 245 250 249 250 238 224 225 220 214 217 226 234 237 241 240 249 276 291 112 328 316 313 332 332 329 324 312 308 308 309 311 312 309 304 301 300 301 303 302 298 291 285
225 228 245 258 253 241 237 235 231 235 231 228 230 228 225 228 255 289 339 37 331 313 308 302 314 315 315 307 302 304 308 312 316 317 313 306 301 300 302 303 303 300 292 286
225 225 232 239 244 234 229 240 241 231 215 199 246 262 251 221 219 235 241 230 271 296 291 283 292 301 301 300 307 308 310 312 313 317 317 311 305 303 302 302 299 298 296 286
246 239 233 235 241 227 203 207 231 240 230 217 235 264 309 351 318 265 245 243 263 291 293 287 295 300 301 305 307 307 307 308 308 308 304 303 301 303 307 309 306 307 303 298
260 256 256 252 226 206 225 228 227 234 233 235 272 309 310 290 273 255 260 272 282 283 289 296 298 302 306 310 310 310 312 312 312 312 314 314 312 313 312 309 308 306 306 306
Height
1468 1467 1468 1470 1472 1472 1475 1475 1480 1479 1480 1480 1479 1481 1483 1485 1487 1490 1492 1494 1495 1497 1498 1499 1501 1502 1503 1503 1504 1506 1507 1507 1508 1510 1511 1511 1512 1512 1513 1513 1513 1514 1514 1515
1470 1466 1467 1470 1469 1470 1472 1474 1475 1476 1480 1478 1480 1482 1483 1485 1487 1490 1491 1493 1494 1495 1496 1497 1499 1500 1500 1501 1502 1503 1504 1505 1506 1507 1508 1508 1509 1510 1510 1510 1511 1511 1512 1512
1474 1466 1468 1474 1469 1467 1472 1472 1474 1480 1481 1478 1480 1482 1484 1485 1487 1489 1491 1492 1493 1494 1495 1496 1497 1497 1498 1499 1500 1500 1501 1502 1503 1504 1504 1505 1506 1507 1507 1508 1508 1508 1509 1509
1473 1473 1483 1477 1468 1468 1471 1474 1475 1476 1478 1480 1481 1483 1484 1485 1487 1488 1490 1491 1492 1492 1493 1494 1495 1496 1496 1497 1498 1498 1499 1499 1500 1500 1500 1501 1503 1504 1504 1505 1505 1506 1506 1506
1474 1477 1476 1474 1472 1473 1475 1478 1477 1478 1479 1481 1482 1482 1484 1485 1487 1487 1489 1490 1491 1491 1492 1492 1493 1494 1495 1495 1495 1496 1496 1496 1497 1497 1498 1499 1499 1500 1501 1502 1502 1503 1503 1503
1475 1480 1482 1479 1473 1473 1476 1481 1479 1479 1480 1482 1482 1485 1486 1486 1486 1487 1487 1488 1489 1489 1490 1491 1491 1492 1493 1493 1493 1493 1493 1494 1494 1495 1496 1496 1497 1498 1499 1499 1499 1500 1500 1500
1478 1480 1478 1477 1474 1474 1484 1486 1482 1481 1482 1483 1484 1486 1487 1485 1486 1486 1486 1487 1487 1488 1488 1489 1489 1490 1490 1491 1491 1491 1491 1492 1492 1493 1493 1494 1494 1495 1496 1496 1497 1497 1497 1497
1477 1482 1485 1478 1476 1480 1484 1482 1482 1483 1484 1484 1485 1485 1485 1485 1485 1485 1485 1486 1486 1487 1487 1487 1488 1488 1488 1488 1488 1489 1489 1489 1490 1490 1491 1491 1491 1491 1492 1493 1493 1493 1494 1494
1478 1483 1481 1479 1480 1481 1482 1482 1483 1484 1484 1485 1485 1485 1485 1485 1485 1485 1485 1485 1486 1486 1486 1487 1487 1486 1486 1486 1486 1486 1487 1487 1487 1487 1487 1488 1488 1488 1488 1489 1489 1490 1490 1490
1476 1478 1479 1479 1480 1481 1482 1483 1483 1483 1484 1484 1485 1485 1485 1485 1484 1484 1485 1484 1484 1485 1485 1485 1485 1485 1485 1485 1484 1484 1484 1484 1484 1484 1484 1484 1484 1484 1485 1485 1486 1486 1486 1487
1476 1478 1479 1480 1480 1481 1482 1482 1482 1483 1483 1483 1484 1484 1484 1484 1484 1484 1484 1484 1484 1483 1483 1484 1484 1484 1484 1483 1483 1482 1482 1482 1482 1482 1481 1481 1481 1481 1481 1482 1482 1483 1483 1484
1478 1478 1479 1480 1480 1481 1481 1482 1482 1482 1482 1483 1483 1483 1483 1483 1482 1482 1482 1483 1482 1482 1482 1482 1482 1482 1482 1481 1481 1480 1480 1480 1479 1479 1479 1478 1478 1478 1478 1479 1479 1480 1480 1481
1477 1478 1478 1479 1479 1480 1480 1481 1481 1482 1482 1482 1482 1482 1482 1481 1481 1481 1481 1481 1481 1480 1480 1480 1480 1480 1480 1479 1479 1478 1478 1477 1477 1476 1476 1476 1475 1475 1475 1475 1476 1476 1477 1477
1477 1477 1478 1478 1479 1479 1479 1480 1480 1481 1481 1481 1481 1481 1481 1480 1480 1480 1480 1479 1479 1479 1479 1478 1478 1477 1477 1476 1476 1475 1475 1474 1474 1473 1473 1473 1472 1472 1472 1471 1471 1471 1472 1473
1476 1476 1477 1477 1478 1478 1478 1479 1479 1479 1479 1479 1479 1479 1479 1479 1479 1479 1478 1478 1477 1477 1477 1476 1476 1475 1474 1473 1473 1472 1472 1471 1471 1470 1470 1470 1470 1469 1469 1468 1468 1467 1468 1468
1474 1475 1475 1476 1476 1476 1477 1477 1477 1477 1478 1478 1478 1478 1478 1478 1478 1477 1477 1476 1476 1475 1475 1474 1473 1473 1472 1470 1470 1469 1468 1468 1467 1467 1467 1467 1466 1466 1466 1465 1465 1464 1464 1464
1473 1473 1473 1473 1474 1474 1475 1475 1475 1476 1476 1476 1476 1476 1476 1476 1476 1475 1475 1475 1474 1473 1473 1471 1471 1470 1469 1468 1467 1466 1465 1465 1464 1464 1463 1463 1463 1463 1462 1462 1461 1461 1460 1461
1470 1471 1471 1471 1471 1472 1473 1473 1474 1474 1474 1474 1474 1474 1474 1474 1473 1473 1473 1473 1472 1471 1471 1470 1469 1467 1466 1465 1464 1463 1462 1462 1461 1461 1460 1460 1459 1459 1459 1458 1458 1457 1457 1457
1468 1468 1469 1469 1470 1470 1471 1471 1472 1472 1472 1472 1472 1472 1472 1472 1472 1471 1471 1471 1470 1469 1469 1468 1467 1465 1464 1462 1461 1460 1459 1459 1458 1458 1457 1456 1456 1455 1455 1454 1454 1453 1453 1452
1465 1466 1466 1467 1467 1468 1468 1469 1469 1470 1470 1470 1470 1470 1470 1470 1470 1469 1469 1469 1468 1467 1467 1466 1464 1463 1461 1460 1459 1457 1457 1456 1456 1455 1454 1453 1452 1452 1451 1451 1450 1449 1449 1448
1463 1463 1464 1464 1465 1465 1466 1466 1467 1467 1467 1468 1468 1468 1468 1468 1468 1467 1467 1467 1466 1465 1464 1463 1462 1461 1459 1458 1456 1455 1454 1453 1452 1452 1451 1450 1449 1448 1447 1447 1446 1446 1445 1444
1460 1461 1461 1462 1462 1463 1463 1464 1464 1464 1465 1465 1466 1466 1466 1466 1465 1465 1465 1465 1464 1463 1462 1461 1460 1459 1457 1455 1454 1452 1451 1450 1449 1448 1447 1446 1446 1445 1444 1443 1442 1441 1441 1440
1458 1459 1459 1460 1460 1460 1461 1461 1462 1462 1462 1463 1463 1463 1463 1463 1463 1463 1462 1462 1461 1460 1459 1458 1457 1456 1454 1453 1451 1450 1449 1447 1446 1445 1444 1443 1442 1441 1440 1439 1438 1437 1436 1436
1456 1457 1457 1457 1458 1458 1458 1459 1459 1459 1460 1460 1460 1461 1461 1460 1460 1460 1460 1459 1458 1458 1456 1456 1455 1453 1452 1450 1449 1447 1446 1445 1443 1442 1441 1440 1438 1437 1436 1435 1434 1433 1432 1431
1453 1454 1454 1455 1455 1455 1456 1456 1456 1457 1457 1457 1458 1458 1458 1458 1458 1457 1457 1456 1455 1455 1454 1453 1452 1450 1449 1448 1446 1445 1443 1442 1441 1439 1437 1436 1435 1433 1432 1431 1430 1429 1428 1427
1451 1451 1452 1452 1452 1453 1453 1453 1454 1454 1454 1454 1455 1455 1455 1455 1455 1454 1454 1453 1453 1452 1451 1450 1449 1447 1446 1445 1443 1442 1440 1439 1437 1435 1434 1432 1431 1429 1428 1427 1426 1424 1423 1423
1448 1448 1449 1449 1449 1450 1451 1451 1451 1451 1451 1451 1452 1452 1452 1452 1451 1451 1451 1450 1449 1448 1448 1447 1445 1444 1443 1441 1440 1438 1437 1435 1433 1432 1430 1428 1427 1425 1424 1423 1422 1420 1419 1418